Arcata, CA

6:12 PM PDT on October 20, 2017 (GMT -0700)
Arcata

Weather History for KACV - April, 2013

Change the Weather History Date:

Wednesday, April 24, 2013

  Actual Average Record
Temperature  
Mean Temperature 57 °F -  
Max Temperature 79 °F 55 °F 79 °F (2013)
Min Temperature 39 °F 41 °F 35 °F (2008)
Degree Days  
Heating Degree Days 8    
Growing Degree Days 7 (Base 50)    
Moisture  
Dew Point 41 °F    
Average Humidity 69    
Maximum Humidity 97    
Minimum Humidity 22    
Precipitation  
Precipitation 0.00 in - - ()
Sea Level Pressure  
Sea Level Pressure 29.92 in    
Wind  
Wind Speed 5 mph (WSW)    
Max Wind Speed 15 mph    
Max Gust Speed 23 mph    
Visibility 10 miles    
Events      
Averages and records for this station are not official NWS values.
T = Trace of Precipitation, MM = Missing Value Source: NWS Daily Summary

Daily Weather History Graph

Daily Weather History Graph

Search for Another Location

Airport or City:

Trip Planner

Search our weather history database for the weather conditions in past years. The results will help you decide how hot, cold, wet, or windy it might be!

Date:

Astronomy

Apr. 24, 2013 Rise Set
Actual Time 6:23 AM PDT 8:06 PM PDT
Civil Twilight 5:54 AM PDT 8:35 PM PDT
Nautical Twilight 5:18 AM PDT 9:11 PM PDT
Astronomical Twilight 4:41 AM PDT 9:49 PM PDT
Moon 7:15 PM PDT (4/24) 5:31 AM PDT (4/24)
Length of Visible Light 14h 41m
Length of Day
13h 42m
Waxing Gibbous, 98% of the Moon is Illuminated
Apr 24
Waxing Gibbous
Apr 25
Full
May 2
Last Quarter
May 9
New
May 17
First Quarter

Hourly Weather History & Observations

Time (PDT) Temp. Windchill Dew Point Humidity Pressure Visibility Wind Dir Wind Speed Gust Speed Precip Events Conditions
12:53 AM 46.0 °F 44.8 °F 41.0 °F 83% 29.96 in 10.0 mi ESE 3.5 mph - N/A   Clear
1:53 AM 42.1 °F - 39.0 °F 89% 29.96 in 10.0 mi Calm Calm - N/A   Clear
3:53 AM 39.9 °F - 39.0 °F 97% 29.94 in 10.0 mi Calm Calm - N/A   Clear
4:53 AM 39.9 °F 37.8 °F 39.0 °F 97% 29.94 in 10.0 mi ESE 3.5 mph - N/A   Clear
5:53 AM 39.0 °F 36.8 °F 37.9 °F 96% 29.93 in 10.0 mi East 3.5 mph - N/A   Clear
6:53 AM 39.0 °F - 37.9 °F 96% 29.94 in 10.0 mi Calm Calm - N/A   Clear
7:53 AM 46.0 °F - 43.0 °F 89% 29.94 in 9.0 mi Calm Calm - N/A   Clear
8:53 AM 54.0 °F - 44.1 °F 69% 29.93 in 10.0 mi Calm Calm - N/A   Clear
9:53 AM 54.0 °F - 45.0 °F 72% 29.93 in 7.0 mi West 4.6 mph - N/A   Clear
10:53 AM 61.0 °F - 48.0 °F 62% 29.93 in 8.0 mi Variable 5.8 mph - N/A   Clear
11:53 AM 72.0 °F - 45.0 °F 38% 29.91 in 10.0 mi West 5.8 mph - N/A   Clear
12:53 PM 75.0 °F - 39.0 °F 27% 29.89 in 10.0 mi NW 10.4 mph - N/A   Clear
1:53 PM 75.0 °F - 34.0 °F 22% 29.88 in 10.0 mi NNW 15.0 mph 23.0 mph N/A   Clear
2:53 PM 73.9 °F - 35.1 °F 24% 29.88 in 10.0 mi NNW 15.0 mph - N/A   Clear
3:53 PM 75.0 °F - 34.0 °F 22% 29.86 in 10.0 mi NNW 15.0 mph - N/A   Clear
4:53 PM 73.0 °F - 34.0 °F 24% 29.86 in 10.0 mi North 12.7 mph - N/A   Clear
5:53 PM 73.0 °F - 32.0 °F 22% 29.87 in 10.0 mi NNW 11.5 mph - N/A   Clear
6:53 PM 57.0 °F - 42.1 °F 57% 29.91 in 10.0 mi SW 13.8 mph - N/A   Clear
7:53 PM 48.0 °F - 45.0 °F 89% 29.93 in 10.0 mi South 5.8 mph - N/A   Clear
8:53 PM 45.0 °F 41.8 °F 44.1 °F 97% 29.94 in 9.0 mi South 5.8 mph - N/A   Clear
9:44 PM 46.4 °F 42.9 °F 44.6 °F 93% 29.93 in 9.0 mi South 6.9 mph - N/A   Scattered Clouds
9:53 PM 46.9 °F - 46.0 °F 97% 29.95 in 8.0 mi South 6.9 mph - N/A   Mostly Cloudy
10:53 PM 46.9 °F - 46.0 °F 97% 29.96 in 8.0 mi South 5.8 mph - N/A   Overcast
11:53 PM 46.9 °F - 46.0 °F 97% 29.97 in 9.0 mi SW 5.8 mph - N/A   Overcast